This is the latest recevied weather packets stored in our database for station/object OK1ALX-6. If no packets are shown the sender has not sent any weather packets the latest 10 day(s).
| Time | Temp. | Humidity | Pressure | Rain* | Wind** | Luminosity | Snow |
|---|---|---|---|---|---|---|---|
| 1777465804 | 11.67° C | 35% | 1031.6 hPa | 0 mm | - | 592 W/m² | - |
| 1777465203 | 11.67° C | 37% | 1031.4 hPa | 0 mm | - | 581 W/m² | - |
| 1777464603 | 11.11° C | 37% | 1031.5 hPa | 0 mm | - | 578 W/m² | - |
| 1777464003 | 11.67° C | 37% | 1031.2 hPa | 0 mm | - | 303 W/m² | - |
| 1777463403 | 11.67° C | 38% | 1031.2 hPa | 0 mm | - | 610 W/m² | - |
| 1777462803 | 11.11° C | 40% | 1031.4 hPa | 0 mm | - | 631 W/m² | - |
| 1777462203 | 11.67° C | 40% | 1031.2 hPa | 0 mm | - | 630 W/m² | - |
| 1777461604 | 11.11° C | 39% | 1031.4 hPa | 0 mm | - | 616 W/m² | - |
| 1777461003 | 11.11° C | 39% | 1031.4 hPa | 0 mm | - | 630 W/m² | - |
| 1777460403 | 11.11° C | 41% | 1031.3 hPa | 0 mm | - | 632 W/m² | - |
| 1777459803 | 11.11° C | 38% | 1031.4 hPa | 0 mm | - | 541 W/m² | - |
| 1777459203 | 11.67° C | 37% | 1031.3 hPa | 0 mm | - | 184 W/m² | - |
| 1777458603 | 11.11° C | 38% | 1031.3 hPa | 0 mm | - | 661 W/m² | - |
| 1777458004 | 11.11° C | 37% | 1031.6 hPa | 0 mm | - | 662 W/m² | - |
| 1777457403 | 11.11° C | 38% | 1031.7 hPa | 0 mm | - | 671 W/m² | - |
| 1777456803 | 11.11° C | 39% | 1031.5 hPa | 0 mm | - | 673 W/m² | - |
| 1777456203 | 11.11° C | 39% | 1031.8 hPa | 0 mm | - | 685 W/m² | - |
| 1777455603 | 11.11° C | 38% | 1031.6 hPa | 0 mm | - | 659 W/m² | - |
| 1777455009 | 11.11° C | 37% | 1031.7 hPa | 0 mm | - | 690 W/m² | - |
| 1777454403 | 10.56° C | 38% | 1031.7 hPa | 0 mm | - | 654 W/m² | - |
| 1777453803 | 10.56° C | 39% | 1031.9 hPa | 0 mm | - | 638 W/m² | - |
| 1777453203 | 10° C | 42% | 1031.8 hPa | 0 mm | - | 636 W/m² | - |
| 1777452603 | 10° C | 40% | 1031.9 hPa | 0 mm | - | 614 W/m² | - |
| 1777452003 | 10° C | 40% | 1031.9 hPa | 0 mm | - | 622 W/m² | - |
| 1777451403 | 9.44° C | 41% | 1032 hPa | 0 mm | - | 596 W/m² | - |
* Rain latest hour (hover to see other rain measurements)
** Current wind speed in m/s (hover to see current wind gust speed)